Temperature
14 14 14 14 14 14 14 14 14 15 15 15 15 16 16 16 16 16 15 15 15 15 14 14 14 14 14 14 14 14 14 14 14 14 14 14 14 14
14 14 14 14 14 14 14 14 14 14 14 15 15 15 15 15 15 15 15 15 15 14 14 14 14 14 14 14 14 14 14 14 14 14 14 14 14 14
13 14 14 14 14 14 14 14 14 14 14 14 14 14 14 15 15 15 15 15 15 14 14 14 14 14 14 14 14 14 14 14 14 14 14 14 14 14
13 14 14 14 14 14 14 14 14 14 14 14 14 14 14 14 14 14 14 14 14 14 14 14 14 14 14 14 14 14 14 14 14 14 14 14 14 14
13 14 14 14 14 14 14 14 14 14 14 14 13 13 14 14 14 14 14 14 14 14 14 14 14 14 14 14 14 14 14 14 14 14 14 14 14 13
14 14 14 14 14 14 14 14 14 14 14 13 13 13 13 14 14 14 14 14 14 14 14 13 14 14 14 14 14 14 14 14 14 14 14 13 13 13
14 14 14 14 14 14 14 14 14 14 13 13 13 13 13 13 13 13 13 13 13 13 13 13 13 13 13 13 13 13 13 13 13 13 13 13 13 13
14 14 14 14 14 14 14 14 14 14 14 14 13 13 13 13 13 13 13 13 13 13 13 13 13 13 13 13 13 13 13 13 13 13 13 12 12 12
13 14 14 14 14 14 14 14 14 14 14 14 13 13 13 13 13 13 13 13 13 12 12 12 12 12 12 12 12 12 12 12 12 12 12 12 11 11
13 13 13 14 14 14 14 14 14 14 14 13 13 13 13 13 13 13 13 13 12 12 12 12 11 11 11 11 11 11 11 11 11 11 11 11 11 11
12 13 13 13 13 14 14 14 14 13 13 13 13 13 13 13 13 13 13 13 12 12 12 11 11 11 11 11 10 11 11 11 11 11 11 10 10 10
12 12 12 13 13 13 13 13 13 13 13 13 13 13 13 13 13 13 13 12 12 12 11 11 11 11 10 10 10 10 10 10 10 10 10 10 10 10
11 11 12 12 12 13 13 13 13 13 13 13 13 13 13 13 13 12 12 12 12 12 11 11 11 11 10 10 9 9 9 9 9 9 9 9 9 9
11 11 11 12 12 12 13 13 13 13 13 13 13 13 12 12 12 12 12 12 12 11 11 11 11 11 10 10 9 9 9 9 9 9 8 8 8 8
10 10 11 11 11 12 12 13 13 13 13 13 12 12 12 12 12 11 11 11 11 11 10 10 10 10 10 9 9 8 8 8 8 8 8 7 7 7
10 10 10 11 11 11 12 12 12 12 12 12 12 12 12 11 11 11 11 10 10 10 10 10 10 9 9 9 8 8 8 7 7 7 7 6 6 6
9 10 10 10 11 11 11 12 12 12 12 12 12 11 11 11 11 10 10 10 10 10 9 9 9 9 8 8 8 7 7 7 6 6 6 6 6 5
9 10 10 10 10 11 11 11 11 11 11 11 11 11 11 11 10 10 10 9 9 9 9 9 8 8 7 7 7 6 6 6 6 6 5 5 5 5
10 10 10 10 10 10 10 11 11 11 11 11 10 10 10 10 10 10 9 9 9 9 8 8 8 7 7 7 6 6 6 5 5 5 5 5 4 4
9 9 9 10 10 10 10 10 10 10 10 10 10 10 10 10 9 9 9 8 8 8 8 8 8 7 7 7 6 6 5 5 5 5 5 4 4 4
9 9 9 9 9 10 10 10 10 10 9 9 9 9 9 9 9 8 8 8 8 8 8 7 7 7 7 6 6 5 5 5 5 5 5 5 5 4
9 9 9 9 9 9 9 9 9 9 9 9 9 9 8 8 8 8 8 8 7 7 7 7 7 6 6 6 5 5 5 4 4 4 4 4 4 4
10 9 9 9 9 9 9 9 9 9 9 8 8 8 8 8 8 7 7 7 7 7 7 7 6 6 6 5 5 5 4 4 4 4 4 4 4 3
Wind_Speed
4 5 4 4 4 4 3 4 5 3 3 3 2 1 2 4 6 8 11 12 13 14 14 12 10 10 10 9 9 8 7 7 6 6 7 8 8 9
3 4 3 3 4 4 4 3 3 4 3 3 2 1 1 2 4 7 9 10 11 12 13 13 12 12 11 11 11 10 10 9 9 8 8 9 9 9
2 3 3 3 4 4 4 4 4 4 4 2 1 1 1 1 1 2 4 5 7 9 10 12 12 12 13 13 13 13 13 12 11 11 10 10 10 11
1 2 2 3 4 4 4 4 4 4 4 3 1 1 1 1 1 0 1 2 4 5 7 8 9 10 11 13 14 14 14 13 13 12 12 12 12 12
2 3 4 4 4 3 4 4 3 3 3 3 1 0 1 1 1 2 2 2 0 1 2 3 4 6 7 9 10 11 12 12 13 13 13 13 14 13
3 4 4 5 5 5 4 4 4 4 3 2 1 0 0 1 1 2 2 2 2 3 4 4 4 5 5 4 4 6 8 10 11 12 13 13 14 14
2 2 3 5 6 5 4 5 5 4 3 3 2 1 1 1 1 1 2 2 3 3 2 4 5 7 8 9 7 6 5 4 6 7 8 9 10 11
2 2 1 2 4 6 6 7 7 5 4 3 2 2 1 1 1 2 2 2 2 3 2 3 4 5 7 10 11 10 9 8 7 6 6 5 6 6
3 2 1 2 4 4 6 7 5 5 6 5 4 3 3 2 3 3 2 3 2 2 2 3 4 5 7 12 15 14 13 13 12 11 10 9 8 8
4 3 2 2 3 6 6 6 6 5 4 5 5 4 3 3 3 4 4 5 4 3 2 3 3 3 5 11 16 17 18 17 16 15 15 14 13 13
6 5 4 3 4 7 7 7 6 5 7 10 9 9 9 8 7 5 4 4 3 3 4 3 2 2 4 6 13 17 20 21 20 19 17 17 16 15
5 6 7 5 4 6 6 7 7 5 5 6 7 9 9 10 9 5 4 4 3 2 3 2 1 2 3 4 7 13 15 18 21 23 22 20 17 14
4 4 5 6 5 5 5 4 6 7 6 7 6 6 6 6 7 8 6 4 4 3 1 1 2 2 2 2 3 8 11 11 13 16 20 23 22 17
3 3 3 6 7 7 5 7 10 9 6 6 6 5 5 5 6 8 11 12 10 6 4 2 2 2 2 2 2 3 7 11 11 11 13 16 18 17
3 5 7 8 8 7 9 10 8 6 6 6 6 4 3 4 4 5 8 11 14 15 12 7 4 3 3 3 2 2 2 5 9 8 9 11 11 11
5 7 10 11 9 8 8 7 5 5 5 5 5 3 3 4 4 3 3 3 5 7 12 16 12 7 6 6 5 4 4 3 4 5 6 8 11 12
4 5 6 6 7 6 6 6 5 5 5 4 5 5 4 4 3 3 3 4 4 3 4 6 14 18 13 6 5 5 4 3 3 3 3 5 6 10
7 7 7 7 7 6 6 6 5 5 5 5 5 5 5 5 5 4 4 5 5 4 3 2 2 3 4 8 10 4 3 3 3 4 3 3 5 6
8 7 7 7 6 6 5 5 4 4 4 5 5 5 5 5 5 5 5 5 4 3 2 2 2 2 2 2 4 10 4 2 2 3 4 3 3 4
6 6 6 6 6 6 5 5 5 5 5 5 5 5 5 5 5 5 4 4 3 3 3 3 4 3 2 3 2 3 9 4 2 2 3 2 2 5
5 5 5 5 5 5 5 5 5 5 5 5 5 5 4 5 5 4 4 5 3 3 3 3 3 2 2 4 4 2 4 9 6 2 2 2 3 4
4 4 4 5 5 5 5 5 5 5 5 5 4 4 4 4 5 5 4 3 3 2 2 2 3 3 3 3 3 1 2 4 7 8 8 5 1 2
3 3 3 4 4 4 4 5 5 4 4 4 4 4 4 4 4 4 4 4 4 3 2 2 3 4 3 3 2 2 2 3 4 4 5 9 7 5
Wind_Direction
183 182 184 186 183 181 170 167 167 195 245 263 266 284 255 238 237 225 227 231 231 233 235 237 240 243 246 247 250 255 258 262 262 266 273 279 287 295
160 171 180 181 179 178 184 184 174 171 210 245 247 259 276 256 237 222 229 234 237 237 237 238 243 247 250 251 253 254 256 256 257 261 266 272 279 285
144 163 193 187 178 177 175 172 172 163 197 247 269 297 311 318 2 221 227 224 235 239 239 242 247 250 253 254 254 253 253 253 254 257 263 268 273 278
182 183 215 197 185 177 173 174 173 173 178 210 264 320 333 354 12 59 143 203 227 240 240 247 253 258 261 260 258 256 254 254 255 258 262 267 272 276
197 203 204 188 192 181 178 172 168 166 163 165 196 356 4 24 54 57 67 54 61 278 262 274 278 278 277 273 267 263 261 261 261 262 263 266 270 274
212 205 198 191 191 182 175 167 154 144 142 149 159 127 46 26 77 81 66 49 37 36 45 37 23 17 2 336 308 287 277 272 270 270 270 272 272 274
266 218 209 202 192 176 167 161 150 141 139 141 138 114 87 77 91 96 98 86 56 30 41 36 39 43 36 27 22 11 352 323 303 292 286 282 280 281
325 320 262 201 188 174 165 159 155 150 153 147 141 143 152 147 118 98 112 106 75 17 49 42 39 50 38 35 35 40 40 37 27 13 359 346 332 321
354 336 329 111 128 125 130 123 122 137 149 148 144 159 158 163 138 107 94 94 93 13 57 57 32 49 39 39 44 48 49 47 44 40 37 32 27 22
26 18 38 76 107 127 119 106 91 80 105 113 124 130 128 129 127 123 120 103 83 37 46 78 32 42 37 41 43 51 53 52 50 49 47 45 47 48
28 37 51 63 93 123 124 119 105 84 84 98 99 99 99 102 111 106 101 96 76 34 25 85 54 47 46 38 37 48 53 53 52 51 51 51 54 56
22 25 35 47 75 117 128 133 131 125 114 95 79 73 72 71 71 80 110 109 108 75 18 75 70 74 80 39 34 39 47 50 53 53 53 53 55 56
25 17 13 36 67 96 117 129 141 133 117 108 96 81 68 62 57 59 64 92 107 94 28 87 88 73 90 81 40 36 45 47 52 53 53 53 54 54
24 9 10 49 71 85 100 119 123 118 112 105 98 89 81 74 70 70 73 72 72 76 49 67 97 94 101 83 68 35 45 46 52 53 49 46 44 47
32 44 57 64 67 68 85 104 110 113 114 110 108 97 87 90 88 81 75 76 66 53 43 47 77 83 82 93 78 32 48 45 46 53 52 48 41 35
41 55 64 66 65 64 70 74 83 104 114 116 113 98 85 85 78 79 85 74 67 46 39 51 65 79 81 71 77 60 46 48 34 51 57 52 44 40
49 52 52 55 60 63 66 68 72 84 93 97 106 105 98 91 73 59 71 68 79 75 58 50 67 75 69 63 67 57 55 49 31 28 50 50 38 30
62 60 56 55 59 63 70 71 67 74 85 98 101 104 106 102 90 70 73 87 94 89 83 39 33 63 70 60 41 47 42 32 22 30 35 41 27 14
62 59 57 56 57 58 61 69 70 64 77 91 97 99 102 101 99 94 91 90 89 80 50 22 30 84 98 85 38 33 38 23 26 33 28 29 8 346
52 54 52 51 53 58 60 65 70 68 72 80 86 90 98 104 102 98 95 100 96 79 59 42 40 48 102 127 109 31 29 34 35 25 2 348 326 332
45 45 43 45 47 51 55 60 66 69 72 78 81 87 96 103 103 100 99 97 89 82 74 37 356 27 86 86 86 45 10 29 48 46 359 3 354 356
49 49 43 45 47 50 52 58 64 64 66 73 78 83 88 97 109 108 105 101 91 96 87 34 19 52 59 87 98 74 3 4 26 52 54 50 24 351
61 60 55 49 48 51 57 63 69 67 68 80 89 94 100 98 98 100 103 106 114 109 94 64 42 52 58 74 90 64 29 6 357 2 359 10 15 358
Height
1516 1518 1520 1522 1524 1526 1529 1531 1534 1535 1536 1537 1539 1540 1542 1544 1546 1547 1549 1551 1552 1553 1554 1554 1555 1555 1556 1556 1556 1556 1556 1556 1556 1556 1556 1556 1555 1554
1513 1515 1517 1519 1521 1523 1526 1528 1530 1532 1533 1534 1535 1537 1538 1540 1541 1543 1545 1546 1548 1549 1550 1551 1552 1552 1553 1553 1553 1553 1553 1553 1553 1553 1553 1552 1552 1551
1512 1514 1516 1518 1520 1522 1524 1526 1527 1529 1530 1532 1532 1533 1534 1536 1537 1539 1541 1542 1544 1546 1547 1548 1549 1549 1550 1550 1550 1550 1550 1550 1550 1549 1549 1549 1548 1548
1511 1512 1515 1517 1519 1520 1522 1524 1525 1526 1528 1529 1530 1530 1531 1533 1534 1536 1537 1539 1541 1542 1543 1544 1545 1546 1546 1547 1547 1547 1546 1546 1546 1545 1545 1545 1544 1544
1510 1512 1514 1516 1518 1519 1521 1522 1523 1524 1525 1526 1527 1528 1529 1530 1531 1533 1535 1536 1538 1539 1540 1541 1542 1542 1543 1543 1543 1542 1542 1542 1541 1541 1541 1540 1539 1539
1510 1511 1513 1515 1517 1518 1520 1521 1522 1522 1523 1524 1525 1526 1527 1528 1529 1531 1532 1533 1535 1536 1537 1538 1538 1539 1539 1539 1539 1538 1538 1537 1537 1536 1536 1535 1535 1534
1509 1510 1512 1514 1516 1517 1519 1519 1520 1521 1522 1523 1524 1525 1526 1527 1528 1529 1530 1531 1533 1534 1534 1535 1535 1535 1535 1535 1535 1534 1534 1533 1533 1532 1531 1531 1530 1529
1507 1509 1511 1513 1515 1516 1517 1519 1520 1521 1522 1522 1523 1524 1525 1526 1527 1528 1529 1530 1531 1532 1533 1533 1533 1533 1533 1533 1532 1532 1531 1531 1530 1529 1528 1527 1526 1525
1506 1508 1510 1512 1513 1515 1517 1518 1519 1520 1522 1523 1524 1525 1525 1526 1527 1528 1528 1529 1530 1531 1532 1532 1533 1533 1533 1532 1532 1531 1530 1529 1528 1527 1526 1525 1524 1523
1505 1506 1508 1510 1513 1515 1516 1518 1520 1521 1522 1523 1524 1525 1526 1526 1527 1528 1529 1529 1530 1531 1532 1533 1533 1533 1533 1533 1532 1531 1530 1529 1528 1527 1526 1525 1523 1522
1504 1505 1507 1510 1512 1514 1516 1518 1520 1522 1523 1524 1525 1526 1527 1527 1528 1529 1529 1530 1531 1532 1533 1533 1534 1534 1534 1534 1533 1532 1531 1530 1528 1527 1526 1524 1523 1521
1504 1505 1507 1509 1511 1513 1516 1518 1520 1522 1524 1525 1526 1527 1528 1529 1529 1530 1530 1531 1531 1532 1533 1534 1534 1534 1535 1535 1534 1533 1532 1530 1529 1528 1526 1525 1523 1521
1504 1505 1506 1508 1511 1513 1515 1518 1520 1522 1524 1526 1527 1528 1529 1530 1530 1531 1531 1532 1532 1533 1534 1534 1534 1534 1535 1535 1534 1533 1532 1531 1530 1528 1526 1524 1523 1521
1504 1505 1506 1508 1510 1512 1515 1517 1520 1523 1525 1526 1528 1529 1530 1531 1531 1532 1532 1533 1533 1534 1534 1534 1534 1534 1534 1534 1534 1534 1533 1531 1530 1528 1526 1525 1523 1520
1506 1506 1507 1509 1510 1513 1515 1518 1520 1523 1525 1527 1528 1530 1531 1532 1533 1533 1534 1534 1535 1535 1535 1535 1535 1534 1534 1534 1534 1534 1533 1532 1530 1528 1527 1525 1522 1520
1508 1508 1509 1510 1512 1514 1516 1518 1521 1524 1526 1528 1529 1531 1532 1533 1534 1535 1535 1535 1535 1535 1535 1535 1535 1535 1534 1534 1534 1534 1533 1532 1530 1529 1527 1525 1523 1520
1511 1511 1511 1512 1514 1516 1518 1520 1522 1524 1527 1529 1530 1532 1533 1534 1535 1535 1536 1536 1536 1536 1536 1535 1535 1535 1535 1535 1534 1534 1533 1532 1531 1529 1527 1525 1523 1521
1514 1514 1515 1516 1517 1518 1520 1522 1524 1526 1528 1530 1531 1533 1534 1535 1535 1536 1536 1537 1536 1536 1536 1536 1536 1536 1536 1535 1536 1535 1534 1532 1531 1529 1528 1526 1524 1522
1518 1518 1518 1519 1520 1521 1523 1524 1526 1528 1529 1531 1532 1534 1534 1535 1536 1536 1537 1537 1537 1537 1536 1536 1536 1536 1536 1536 1536 1535 1534 1533 1532 1530 1528 1527 1525 1523
1522 1522 1523 1523 1524 1525 1526 1527 1528 1529 1531 1532 1533 1534 1535 1536 1536 1537 1537 1537 1537 1537 1536 1536 1536 1535 1536 1536 1536 1535 1535 1534 1532 1531 1529 1527 1526 1524
1526 1526 1526 1526 1527 1528 1528 1529 1530 1531 1532 1533 1534 1535 1535 1536 1536 1537 1537 1537 1537 1537 1536 1536 1536 1536 1536 1536 1536 1536 1535 1534 1532 1531 1529 1528 1526 1524
1528 1528 1528 1529 1529 1529 1530 1531 1531 1532 1533 1533 1534 1535 1535 1536 1536 1536 1537 1537 1536 1536 1536 1536 1536 1536 1536 1536 1536 1535 1534 1534 1532 1531 1529 1527 1526 1523
1529 1529 1529 1529 1530 1530 1530 1531 1531 1532 1532 1533 1533 1534 1535 1535 1536 1536 1536 1536 1536 1536 1536 1536 1536 1536 1536 1536 1535 1535 1534 1533 1532 1531 1530 1528 1526 1524